Time,TemperatureF,DewpointF,PressureIn,WindDirection,WindDirectionDegrees,WindSpeedMPH,WindSpeedGustMPH,Humidity,HourlyPrecipIn,Conditions,Clouds,dailyrainin,SoftwareType,DateUTC
2013-01-15 00:23:00,34.0,-99.9,30.30,North,1,-999.0,-999.0,-999,-99.99,,,-99.99,,2013-01-15 05:23:00,
2013-01-15 00:33:00,34.0,-99.9,30.30,North,1,-999.0,-999.0,-999,-99.99,,,-99.99,,2013-01-15 05:33:00,
2013-01-15 00:43:00,34.0,-99.9,30.30,North,1,-999.0,-999.0,-999,-99.99,,,-99.99,,2013-01-15 05:43:00,
2013-01-15 00:53:00,33.0,-99.9,30.30,North,1,-999.0,-999.0,-999,-99.99,,,-99.99,,2013-01-15 05:53:00,
2013-01-15 01:22:00,33.0,-99.9,30.30,North,1,-999.0,-999.0,-999,-99.99,,,-99.99,,2013-01-15 06:22:00,
2013-01-15 01:33:00,33.0,-99.9,30.30,North,1,-999.0,-999.0,-999,-99.99,,,-99.99,,2013-01-15 06:33:00,
2013-01-15 01:43:00,33.0,-99.9,30.30,North,1,-999.0,-999.0,-999,-99.99,,,-99.99,,2013-01-15 06:43:00,
2013-01-15 01:53:00,33.0,-99.9,30.29,NNW,339,-999.0,-999.0,-999,-99.99,,,-99.99,,2013-01-15 06:53:00,
2013-01-15 02:22:00,33.0,-99.9,30.29,NNW,339,-999.0,-999.0,-999,-99.99,,,-99.99,,2013-01-15 07:22:00,
2013-01-15 02:33:00,33.0,-99.9,30.29,NNW,339,-999.0,-999.0,-999,-99.99,,,-99.99,,2013-01-15 07:33:00,
2013-01-15 02:43:00,33.0,-99.9,30.29,NNW,339,-999.0,-999.0,-999,-99.99,,,-99.99,,2013-01-15 07:43:00,
2013-01-15 02:53:00,33.0,-99.9,30.25,ESE,106,-999.0,-999.0,-999,-99.99,,,-99.99,,2013-01-15 07:53:00,
2013-01-15 03:22:00,33.0,-99.9,30.25,ESE,106,-999.0,-999.0,-999,-99.99,,,-99.99,,2013-01-15 08:22:00,
2013-01-15 03:33:00,33.0,-99.9,30.25,ESE,106,-999.0,-999.0,-999,-99.99,,,-99.99,,2013-01-15 08:33:00,
2013-01-15 03:43:00,33.0,-99.9,30.25,ESE,106,-999.0,-999.0,-999,-99.99,,,-99.99,,2013-01-15 08:43:00,
2013-01-15 04:33:00,33.0,-99.9,30.27,ESE,106,-999.0,-999.0,-999,-99.99,,,-99.99,,2013-01-15 09:33:00,
2013-01-15 04:43:00,33.0,-99.9,30.27,ESE,106,-999.0,-999.0,-999,-99.99,,,-99.99,,2013-01-15 09:43:00,
2013-01-15 04:52:00,33.0,-99.9,30.27,ESE,106,-999.0,-999.0,-999,-99.99,,,-99.99,,2013-01-15 09:52:00,
2013-01-15 05:22:00,33.0,-99.9,30.27,ESE,106,-999.0,-999.0,-999,-99.99,,,-99.99,,2013-01-15 10:22:00,
2013-01-15 05:33:00,33.0,-99.9,30.27,ESE,106,-999.0,-999.0,-999,-99.99,,,-99.99,,2013-01-15 10:33:00,
2013-01-15 05:42:00,33.0,-99.9,30.27,ESE,106,-999.0,-999.0,-999,-99.99,,,-99.99,,2013-01-15 10:42:00,
2013-01-15 05:52:00,33.0,-99.9,30.27,ESE,106,-999.0,-999.0,-999,-99.99,,,-99.99,,2013-01-15 10:52:00,
2013-01-15 05:53:00,33.0,-99.9,30.29,ESE,106,-999.0,-999.0,-999,-99.99,,,-99.99,,2013-01-15 10:53:00,
2013-01-15 06:23:00,33.0,-99.9,30.29,ESE,106,-999.0,-999.0,-999,-99.99,,,-99.99,,2013-01-15 11:23:00,
2013-01-15 06:33:00,33.0,-99.9,30.29,ESE,106,-999.0,-999.0,-999,-99.99,,,-99.99,,2013-01-15 11:33:00,
2013-01-15 06:43:00,33.0,-99.9,30.29,ESE,106,-999.0,-999.0,-999,-99.99,,,-99.99,,2013-01-15 11:43:00,
2013-01-15 06:53:00,32.0,-99.9,30.31,ESE,106,-999.0,-999.0,-999,-99.99,,,-99.99,,2013-01-15 11:53:00,
2013-01-15 07:23:00,32.0,-99.9,30.31,ESE,106,-999.0,-999.0,-999,-99.99,,,-99.99,,2013-01-15 12:23:00,
2013-01-15 07:33:00,32.0,-99.9,30.31,ESE,106,-999.0,-999.0,-999,-99.99,,,-99.99,,2013-01-15 12:33:00,
2013-01-15 07:43:00,32.0,-99.9,30.31,ESE,106,-999.0,-999.0,-999,-99.99,,,-99.99,,2013-01-15 12:43:00,
2013-01-15 07:53:00,32.0,-99.9,30.33,ESE,106,-999.0,-999.0,-999,-99.99,,,-99.99,,2013-01-15 12:53:00,
2013-01-15 08:23:00,32.0,-99.9,30.33,ESE,106,-999.0,-999.0,-999,-99.99,,,-99.99,,2013-01-15 13:23:00,
2013-01-15 08:33:00,32.0,-99.9,30.33,ESE,106,-999.0,-999.0,-999,-99.99,,,-99.99,,2013-01-15 13:33:00,
2013-01-15 08:43:00,32.0,-99.9,30.33,ESE,106,-999.0,-999.0,-999,-99.99,,,-99.99,,2013-01-15 13:43:00,
2013-01-15 08:53:00,32.0,-99.9,30.36,ESE,106,-999.0,-999.0,-999,-99.99,,,-99.99,,2013-01-15 13:53:00,
2013-01-15 09:23:00,32.0,-99.9,30.36,ESE,106,-999.0,-999.0,-999,-99.99,,,-99.99,,2013-01-15 14:23:00,
2013-01-15 09:33:00,32.0,-99.9,30.36,ESE,106,-999.0,-999.0,-999,-99.99,,,-99.99,,2013-01-15 14:33:00,
2013-01-15 09:43:00,32.0,-99.9,30.36,ESE,106,-999.0,-999.0,-999,-99.99,,,-99.99,,2013-01-15 14:43:00,
2013-01-15 09:53:00,33.0,-99.9,30.35,ESE,106,-999.0,-999.0,-999,-99.99,,,-99.99,,2013-01-15 14:53:00,
2013-01-15 10:23:00,33.0,-99.9,30.35,ESE,106,-999.0,-999.0,-999,-99.99,,,-99.99,,2013-01-15 15:23:00,
2013-01-15 10:33:00,33.0,-99.9,30.35,ESE,106,-999.0,-999.0,-999,-99.99,,,-99.99,,2013-01-15 15:33:00,
2013-01-15 10:43:00,33.0,-99.9,30.35,ESE,106,-999.0,-999.0,-999,-99.99,,,-99.99,,2013-01-15 15:43:00,
2013-01-15 10:53:00,34.0,-99.9,30.36,ESE,106,-999.0,-999.0,-999,-99.99,,,-99.99,,2013-01-15 15:53:00,
2013-01-15 11:23:00,34.0,-99.9,30.36,ESE,106,-999.0,-999.0,-999,-99.99,,,-99.99,,2013-01-15 16:23:00,
2013-01-15 11:34:00,34.0,-99.9,30.36,ESE,106,-999.0,-999.0,-999,-99.99,,,-99.99,,2013-01-15 16:34:00,
2013-01-15 11:43:00,34.0,-99.9,30.36,ESE,106,-999.0,-999.0,-999,-99.99,,,-99.99,,2013-01-15 16:43:00,
2013-01-15 11:53:00,35.0,-99.9,30.34,ESE,106,-999.0,-999.0,-999,-99.99,,,-99.99,,2013-01-15 16:53:00,
2013-01-15 12:23:00,35.0,-99.9,30.34,ESE,106,-999.0,-999.0,-999,-99.99,,,-99.99,,2013-01-15 17:23:00,
2013-01-15 12:33:00,35.0,-99.9,30.34,ESE,106,-999.0,-999.0,-999,-99.99,,,-99.99,,2013-01-15 17:33:00,
2013-01-15 12:43:00,35.0,-99.9,30.34,ESE,106,-999.0,-999.0,-999,-99.99,,,-99.99,,2013-01-15 17:43:00,
2013-01-15 12:53:00,36.0,-99.9,30.30,ESE,106,-999.0,-999.0,-999,-99.99,,,-99.99,,2013-01-15 17:53:00,
2013-01-15 13:34:00,36.0,-99.9,30.30,ESE,106,-999.0,-999.0,-999,-99.99,,,-99.99,,2013-01-15 18:34:00,
2013-01-15 13:43:00,36.0,-99.9,30.30,ESE,106,-999.0,-999.0,-999,-99.99,,,-99.99,,2013-01-15 18:43:00,
2013-01-15 13:53:00,36.0,-99.9,30.29,NE,49,-999.0,8.0,-999,-99.99,,,-99.99,,2013-01-15 18:53:00,
2013-01-15 14:23:00,36.0,-99.9,30.29,NE,49,-999.0,8.0,-999,-99.99,,,-99.99,,2013-01-15 19:23:00,
2013-01-15 14:33:00,36.0,-99.9,30.29,NE,49,-999.0,8.0,-999,-99.99,,,-99.99,,2013-01-15 19:33:00,
2013-01-15 14:43:00,36.0,-99.9,30.29,NE,49,-999.0,8.0,-999,-99.99,,,-99.99,,2013-01-15 19:43:00,
2013-01-15 14:53:00,36.0,-99.9,30.27,North,7,-999.0,8.0,-999,-99.99,,,-99.99,,2013-01-15 19:53:00,
2013-01-15 15:23:00,36.0,-99.9,30.27,North,7,-999.0,8.0,-999,-99.99,,,-99.99,,2013-01-15 20:23:00,
2013-01-15 15:33:00,36.0,-99.9,30.27,North,7,-999.0,8.0,-999,-99.99,,,-99.99,,2013-01-15 20:33:00,
2013-01-15 15:44:00,36.0,-99.9,30.27,North,7,-999.0,8.0,-999,-99.99,,,-99.99,,2013-01-15 20:44:00,
2013-01-15 15:53:00,36.0,-99.9,30.29,NNE,26,-999.0,-999.0,-999,-99.99,,,-99.99,,2013-01-15 20:53:00,
2013-01-15 16:23:00,36.0,-99.9,30.29,NNE,26,-999.0,-999.0,-999,-99.99,,,-99.99,,2013-01-15 21:23:00,
2013-01-15 16:34:00,36.0,-99.9,30.29,NNE,26,-999.0,-999.0,-999,-99.99,,,-99.99,,2013-01-15 21:34:00,
2013-01-15 16:43:00,36.0,-99.9,30.29,NNE,26,-999.0,-999.0,-999,-99.99,,,-99.99,,2013-01-15 21:43:00,
2013-01-15 16:53:00,36.0,-99.9,30.29,North,10,-999.0,-999.0,-999,-99.99,,,-99.99,,2013-01-15 21:53:00,
2013-01-15 17:23:00,36.0,-99.9,30.29,North,10,-999.0,-999.0,-999,-99.99,,,-99.99,,2013-01-15 22:23:00,
2013-01-15 17:33:00,36.0,-99.9,30.29,North,10,-999.0,-999.0,-999,-99.99,,,-99.99,,2013-01-15 22:33:00,
2013-01-15 17:43:00,36.0,-99.9,30.29,North,10,-999.0,-999.0,-999,-99.99,,,-99.99,,2013-01-15 22:43:00,
2013-01-15 17:53:00,35.0,-99.9,30.29,North,10,-999.0,-999.0,-999,-99.99,,,-99.99,,2013-01-15 22:53:00,
2013-01-15 18:23:00,35.0,-99.9,30.29,North,10,-999.0,-999.0,-999,-99.99,,,-99.99,,2013-01-15 23:23:00,
2013-01-15 18:33:00,35.0,-99.9,30.29,North,10,-999.0,-999.0,-999,-99.99,,,-99.99,,2013-01-15 23:33:00,
2013-01-15 18:43:00,35.0,-99.9,30.29,North,10,-999.0,-999.0,-999,-99.99,,,-99.99,,2013-01-15 23:43:00,
2013-01-15 18:53:00,35.0,-99.9,30.30,North,10,-999.0,-999.0,-999,-99.99,,,-99.99,,2013-01-15 23:53:00,
2013-01-15 19:23:00,35.0,-99.9,30.30,North,10,-999.0,-999.0,-999,-99.99,,,-99.99,,2013-01-16 00:23:00,
2013-01-15 19:33:00,35.0,-99.9,30.30,North,10,-999.0,-999.0,-999,-99.99,,,-99.99,,2013-01-16 00:33:00,
2013-01-15 19:43:00,35.0,-99.9,30.30,North,10,-999.0,-999.0,-999,-99.99,,,-99.99,,2013-01-16 00:43:00,
2013-01-15 19:53:00,35.0,-99.9,30.27,North,358,-999.0,-999.0,-999,-99.99,,,-99.99,,2013-01-16 00:53:00,
2013-01-15 20:23:00,35.0,-99.9,30.27,North,358,-999.0,-999.0,-999,-99.99,,,-99.99,,2013-01-16 01:23:00,
2013-01-15 20:33:00,35.0,-99.9,30.27,North,358,-999.0,-999.0,-999,-99.99,,,-99.99,,2013-01-16 01:33:00,
2013-01-15 20:43:00,35.0,-99.9,30.27,North,358,-999.0,-999.0,-999,-99.99,,,-99.99,,2013-01-16 01:43:00,
2013-01-15 22:53:00,33.0,-99.9,30.24,North,358,-999.0,-999.0,-999,-99.99,,,-99.99,,2013-01-16 03:53:00,
2013-01-15 23:22:00,33.0,-99.9,30.24,North,358,-999.0,-999.0,-999,-99.99,,,-99.99,,2013-01-16 04:22:00,
2013-01-15 23:33:00,33.0,-99.9,30.24,North,358,-999.0,-999.0,-999,-99.99,,,-99.99,,2013-01-16 04:33:00,
2013-01-15 23:42:00,33.0,-99.9,30.24,North,358,-999.0,-999.0,-999,-99.99,,,-99.99,,2013-01-16 04:42:00,
2013-01-15 23:53:00,32.0,-99.9,30.23,North,358,-999.0,-999.0,-999,-99.99,,,-99.99,,2013-01-16 04:53:00,